EW6135 Weather Reports


time (UTC)temp
C
wind
direction
speed
KPH
gust
KPH
rain 1hr
cm
rain 24hr
cm
rain mn
cm
humidity
%
barometer
mb
20260506114012 17 32 0.0 1.6 0.00 0.08 0.03 98 1016.2
20260506113514 17 311 0.0 0.0 0.00 0.08 0.03 98 1016.4
20260506113013 17 311 0.0 1.6 0.00 0.08 0.03 98 1016.4
20260506112514 16 74 0.0 0.0 0.00 0.08 0.03 98 1016.4
20260506112012 16 74 0.0 1.6 0.00 0.08 0.03 98 1016.2
20260506111511 16 74 0.0 1.6 0.00 0.08 0.03 98 1016.1
20260506111015 15 74 0.0 1.6 0.00 0.08 0.03 98 1016.1
20260506110514 15 74 0.0 1.6 0.00 0.08 0.03 98 1016.2
20260506110012 15 74 0.0 0.0 0.03 0.08 0.03 98 1016.2
20260506105517 14 74 0.0 0.0 0.03 0.08 0.03 98 1016.0
20260506105011 13 74 0.0 0.0 0.03 0.08 0.03 97 1016.0
20260506104510 13 74 0.0 0.0 0.03 0.08 0.03 97 1016.0
20260506104010 13 74 0.0 0.0 0.03 0.08 0.03 97 1016.1
20260506103512 13 74 0.0 0.0 0.03 0.08 0.03 97 1016.1
20260506103009 13 74 0.0 0.0 0.03 0.08 0.03 97 1016.0
20260506102512 13 74 0.0 0.0 0.03 0.08 0.03 97 1016.0
20260506102010 13 74 0.0 0.0 0.03 0.08 0.03 97 1016.0
20260506101508 13 74 0.0 0.0 0.03 0.08 0.03 96 1015.8
20260506101007 13 74 0.0 0.0 0.03 0.08 0.03 96 1015.8
20260506100507 13 74 0.0 0.0 0.03 0.08 0.03 96 1015.9
20260506100020 13 74 0.0 0.0 0.03 0.08 0.03 96 1015.8
20260506095506 13 74 0.0 0.0 0.00 0.05 0.00 96 1015.9
20260506095009 13 74 0.0 0.0 0.00 0.05 0.00 96 1016.0
20260506094505 13 74 0.0 0.0 0.00 0.05 0.00 96 1015.9
20260506094004 14 74 0.0 0.0 0.00 0.05 0.00 96 1015.8
20260506093503 14 74 0.0 0.0 0.00 0.05 0.00 96 1015.7
20260506093003 14 74 0.0 0.0 0.00 0.05 0.00 96 1015.7
20260506092504 14 74 0.0 1.6 0.00 0.05 0.00 95 1015.9
20260506092002 15 74 0.0 1.6 0.00 0.05 0.00 95 1015.8
20260506091502 15 74 0.0 0.0 0.00 0.05 0.00 94 1015.6
20260506091001 15 74 0.0 0.0 0.00 0.05 0.00 94 1015.6
20260506090600 15 74 0.0 0.0 0.00 0.05 0.00 94 1015.7
20260506090100 15 74 0.0 0.0 0.00 0.05 0.00 94 1015.7
20260506085559 15 74 0.0 0.0 0.00 0.05 0.00 94 1015.8
20260506085057 15 74 0.0 0.0 0.00 0.05 0.00 93 1015.8
20260506084603 15 74 0.0 1.6 0.00 0.05 0.00 93 1015.9
20260506084058 15 255 0.0 0.0 0.00 0.05 0.00 93 1015.9
20260506083556 16 255 0.0 0.0 0.00 0.05 0.00 92 1015.8
20260506083056 16 255 0.0 0.0 0.00 0.05 0.00 92 1015.8
20260506082555 16 255 0.0 0.0 0.00 0.05 0.00 93 1015.7
20260506082055 16 255 0.0 0.0 0.00 0.05 0.00 93 1015.9
20260506081555 16 255 0.0 0.0 0.00 0.05 0.00 94 1015.9
20260506080556 16 255 0.0 0.0 0.00 0.05 0.00 93 1015.7
20260506073047 16 255 0.0 1.6 0.00 0.05 0.00 91 1016.0
20260506072546 16 255 0.0 0.0 0.00 0.05 0.00 91 1016.1
20260506072045 17 255 0.0 0.0 0.00 0.05 0.00 90 1016.1
20260506071552 17 255 0.0 0.0 0.00 0.05 0.00 89 1016.1
20260506070550 17 255 0.0 0.0 0.00 0.05 0.00 89 1016.2
20260506062041 18 139 0.0 4.8 0.00 0.05 0.00 86 1015.9
20260506061540 18 124 0.0 1.6 0.00 0.05 0.00 85 1016.2
20260506060539 18 124 0.0 1.6 0.00 0.05 0.00 85 1016.3
20260506050529 18 107 0.0 6.4 0.00 0.05 0.00 83 1016.9
20260506045028 18 150 0.0 3.2 0.00 0.05 0.00 83 1016.9
20260506044536 18 290 0.0 6.4 0.00 0.05 0.00 83 1017.1
20260506044027 18 131 0.0 6.4 0.00 0.05 0.00 83 1017.2
20260506043526 18 164 0.0 4.8 0.00 0.05 0.00 83 1017.2
20260506043027 18 127 1.6 4.8 0.00 0.05 0.00 83 1017.1
20260506042528 18 65 0.0 6.4 0.00 0.05 0.00 83 1017.2
20260506042024 18 278 0.0 6.4 0.00 0.05 0.00 83 1017.4
20260506041525 18 256 0.0 6.4 0.00 0.05 0.00 83 1017.3
20260506040525 18 112 0.0 6.4 0.00 0.05 0.00 83 1017.3
20260506040023 18 262 0.0 6.4 0.00 0.05 0.00 82 1017.4
20260506035526 18 274 0.0 6.4 0.00 0.05 0.05 82 1017.4
20260506035023 18 316 0.0 6.4 0.00 0.05 0.05 82 1017.5
20260506034523 18 245 0.0 6.4 0.00 0.05 0.05 82 1017.4
20260506034023 18 115 0.0 3.2 0.00 0.05 0.05 82 1017.4
20260506033522 18 93 0.0 4.8 0.00 0.05 0.05 82 1017.5
20260506033032 18 268 0.0 4.8 0.00 0.05 0.05 83 1017.4
20260506032523 18 121 0.0 4.8 0.00 0.05 0.05 83 1017.4
20260506032022 18 245 0.0 4.8 0.00 0.05 0.05 83 1017.5
20260506031531 18 112 0.0 8.0 0.00 0.05 0.05 83 1017.5
20260506030524 18 120 0.0 8.0 0.00 0.05 0.05 83 1017.7
20260506030042 18 241 0.0 6.4 0.00 0.05 0.05 82 1017.6
20260506025522 18 262 0.0 6.4 0.00 0.05 0.05 83 1017.6
20260506025024 18 156 0.0 6.4 0.00 0.05 0.05 82 1017.6
20260506024527 18 97 0.0 3.2 0.00 0.05 0.05 82 1017.7
20260506024021 18 109 0.0 8.0 0.00 0.05 0.05 82 1017.6
20260506023521 18 253 1.6 8.0 0.00 0.05 0.05 82 1017.6
20260506023021 18 119 0.0 6.4 0.00 0.05 0.05 82 1017.7
20260506022521 19 281 1.6 6.4 0.00 0.05 0.05 82 1017.7
20260506022020 18 253 0.0 9.7 0.00 0.05 0.05 83 1017.6
20260506021521 18 118 1.6 8.0 0.00 0.05 0.05 83 1017.6
20260506020524 18 253 0.0 4.8 0.00 0.05 0.05 82 1017.5
20260506020020 18 101 0.0 6.4 0.00 0.05 0.05 82 1017.5
20260506015521 18 252 0.0 6.4 0.00 0.05 0.05 82 1017.6
20260506015021 18 68 0.0 4.8 0.00 0.05 0.05 82 1017.4
20260506014520 18 259 1.6 4.8 0.00 0.05 0.05 82 1017.4
20260506014020 18 63 0.0 4.8 0.00 0.05 0.05 82 1017.4
20260506013523 18 141 0.0 4.8 0.00 0.05 0.05 82 1017.3
20260506013019 19 81 1.6 9.7 0.00 0.05 0.05 82 1017.3
20260506012520 18 232 1.6 6.4 0.00 0.05 0.05 82 1017.2
20260506012020 18 117 0.0 3.2 0.00 0.05 0.05 82 1017.3
20260506011529 18 146 1.6 6.4 0.03 0.05 0.05 83 1017.3
20260506010521 18 275 0.0 8.0 0.03 0.05 0.05 84 1017.3
20260506010021 18 139 1.6 8.0 0.05 0.05 0.05 84 1017.2
20260506005521 18 102 0.0 0.0 0.05 0.10 0.05 84 1017.2
20260506005021 19 102 0.0 4.8 0.05 0.10 0.05 84 1017.3
20260506004540 19 102 0.0 4.8 0.05 0.10 0.05 84 1017.3
20260506004121 19 124 0.0 6.4 0.05 0.10 0.05 84 1017.2
20260506003521 19 248 1.6 6.4 0.05 0.10 0.05 84 1017.3
20260506003031 19 179 0.0 4.8 0.05 0.10 0.05 83 1017.2
20260506002520 19 256 0.0 4.8 0.05 0.10 0.05 83 1017.1
20260506002020 19 269 0.0 4.8 0.05 0.10 0.05 82 1017.2
20260506001523 20 240 0.0 3.2 0.05 0.10 0.05 80 1017.1
20260506000518 20 238 0.0 3.2 0.03 0.08 0.03 79 1017.1
20260506000022 20 224 0.0 4.8 0.00 0.05 0.00 79 1017.1
20260505235517 20 247 1.6 4.8 0.00 0.05 0.00 78 1017.1
20260505235018 20 249 0.0 6.4 0.00 0.05 0.00 77 1017.1
20260505234517 20 246 0.0 8.0 0.00 0.05 0.00 77 1017.1
20260505234117 20 244 0.0 8.0 0.00 0.05 0.00 76 1017.2
20260505233520 20 235 0.0 6.4 0.00 0.05 0.00 75 1017.1
20260505233017 21 152 0.0 8.0 0.00 0.05 0.00 74 1017.1
20260505232517 21 229 3.2 9.7 0.00 0.05 0.00 73 1017.1
20260505232017 21 260 3.2 9.7 0.00 0.05 0.00 72 1017.1
20260505231525 22 229 0.0 14.5 0.00 0.05 0.00 71 1017.1
20260505230519 22 269 1.6 11.3 0.00 0.05 0.00 69 1017.1
20260505230021 22 236 0.0 14.5 0.00 0.05 0.00 69 1017.1
20260505225517 22 240 6.4 14.5 0.00 0.05 0.00 69 1017.1
20260505225022 22 194 3.2 11.3 0.00 0.05 0.00 68 1017.2
20260505224517 22 260 1.6 17.7 0.00 0.05 0.00 69 1017.1
20260505224016 22 283 1.6 12.9 0.00 0.05 0.00 70 1017.1
20260505223516 22 227 0.0 16.1 0.00 0.05 0.00 70 1017.2
20260505223016 21 235 3.2 16.1 0.00 0.05 0.00 70 1017.2
20260505222519 22 233 0.0 11.3 0.00 0.05 0.00 70 1017.2
20260505222016 22 258 3.2 9.7 0.00 0.05 0.00 69 1017.2
20260505221519 23 217 1.6 12.9 0.00 0.05 0.00 68 1017.1
20260505220516 22 300 1.6 12.9 0.00 0.05 0.00 69 1016.9
20260505220016 22 79 1.6 11.3 0.00 0.05 0.00 68 1016.9
20260505215516 22 236 1.6 11.3 0.00 0.05 0.00 69 1017.0
20260505215020 22 231 3.2 16.1 0.00 0.05 0.00 69 1016.9
20260505214516 22 242 4.8 16.1 0.00 0.05 0.00 68 1016.9
20260505214016 22 236 1.6 14.5 0.00 0.05 0.00 68 1016.9
20260505213517 22 134 1.6 25.7 0.00 0.05 0.00 68 1016.9
20260505213014 22 248 4.8 12.9 0.00 0.05 0.00 69 1016.8
20260505212514 22 239 4.8 12.9 0.00 0.05 0.00 68 1016.9
20260505212015 22 293 4.8 12.9 0.00 0.05 0.00 67 1017.0
20260505211515 23 101 4.8 14.5 0.00 0.05 0.00 65 1017.1
20260505210515 23 117 4.8 14.5 0.00 0.05 0.00 64 1017.1
20260505210014 23 257 1.6 14.5 0.00 0.05 0.00 69 1017.2
20260505205514 23 250 1.6 11.3 0.00 0.05 0.00 69 1017.2
20260505205014 23 258 3.2 14.5 0.00 0.05 0.00 67 1017.2
20260505204514 23 252 3.2 24.1 0.00 0.05 0.00 65 1017.1
20260505204013 23 25 3.2 24.1 0.00 0.05 0.00 66 1017.1
20260505203512 23 269 4.8 14.5 0.00 0.05 0.00 66 1017.1
20260505203024 23 313 3.2 17.7 0.00 0.05 0.00 64 1017.2
20260505202512 23 271 6.4 17.7 0.00 0.05 0.00 65 1017.2
20260505202012 24 235 4.8 12.9 0.00 0.05 0.00 64 1017.2
20260505201512 23 134 6.4 20.9 0.00 0.05 0.00 63 1017.3
20260505200512 23 245 8.0 20.9 0.00 0.05 0.00 63 1017.5
20260505200014 24 191 6.4 17.7 0.00 0.05 0.00 63 1017.5
20260505195514 24 236 3.2 19.3 0.00 0.05 0.00 64 1017.6
20260505195012 24 276 1.6 19.3 0.00 0.05 0.00 65 1017.6
20260505194511 24 243 4.8 22.5 0.00 0.05 0.00 63 1017.8
20260505194011 24 272 1.6 22.5 0.00 0.05 0.00 65 1017.9
20260505193510 24 238 3.2 19.3 0.00 0.05 0.00 64 1017.9
20260505193010 23 281 3.2 20.9 0.00 0.05 0.00 64 1017.9
20260505192510 23 233 8.0 16.1 0.00 0.05 0.00 65 1017.9
20260505192010 23 115 1.6 12.9 0.00 0.05 0.00 65 1018.0
20260505191509 23 130 4.8 19.3 0.00 0.05 0.00 64 1018.0
20260505190508 23 205 3.2 12.9 0.00 0.05 0.00 64 1018.1
20260505190009 24 160 1.6 9.7 0.00 0.05 0.00 65 1017.9
20260505185508 23 122 4.8 14.5 0.00 0.05 0.00 65 1018.1
20260505185012 23 264 4.8 16.1 0.00 0.05 0.00 65 1018.1
20260505184516 23 111 1.6 16.1 0.00 0.05 0.00 67 1018.3
20260505184008 23 217 6.4 16.1 0.00 0.05 0.00 65 1018.3
20260505183508 23 305 1.6 11.3 0.00 0.05 0.00 67 1018.3
20260505183006 23 248 3.2 20.9 0.00 0.05 0.00 65 1018.4
20260505182506 23 233 1.6 20.9 0.00 0.05 0.00 65 1018.3
20260505182006 23 102 4.8 16.1 0.00 0.05 0.00 67 1018.2
20260505181505 23 278 4.8 16.1 0.00 0.05 0.00 67 1018.3
20260505180507 23 241 3.2 16.1 0.00 0.05 0.00 67 1018.2
20260505180008 23 230 4.8 16.1 0.00 0.05 0.00 67 1018.3
20260505175505 24 212 4.8 12.9 0.00 0.05 0.00 65 1018.4
20260505175005 24 134 3.2 19.3 0.00 0.05 0.00 66 1018.4
20260505174505 23 226 3.2 19.3 0.00 0.05 0.00 67 1018.4
20260505174004 23 255 1.6 8.0 0.00 0.05 0.00 67 1018.5
20260505173503 23 179 1.6 17.7 0.00 0.05 0.00 67 1018.5
20260505173003 23 258 1.6 12.9 0.00 0.05 0.00 70 1018.5
20260505172502 23 170 4.8 20.9 0.00 0.05 0.00 67 1018.4
20260505172002 23 249 4.8 16.1 0.00 0.05 0.00 65 1018.3
20260505171504 23 258 1.6 9.7 0.00 0.05 0.00 71 1018.4
20260505170601 23 236 1.6 9.7 0.00 0.05 0.00 68 1018.4
20260505170502 23 243 3.2 9.7 0.00 0.05 0.00 68 1018.5
20260505170100 23 94 1.6 9.7 0.00 0.05 0.00 68 1018.5
20260505165600 23 258 3.2 9.7 0.00 0.05 0.00 64 1018.6
20260505165104 24 218 0.0 17.7 0.00 0.05 0.00 69 1018.6
20260505164559 23 247 3.2 17.7 0.00 0.05 0.00 66 1018.8
20260505164059 24 233 1.6 9.7 0.00 0.05 0.00 66 1018.9
20260505163559 23 152 1.6 20.9 0.00 0.05 0.00 69 1018.7
20260505163100 23 159 4.8 20.9 0.00 0.05 0.00 69 1018.8
20260505162600 23 80 4.8 14.5 0.00 0.05 0.00 68 1018.7
20260505162058 23 78 4.8 14.5 0.00 0.05 0.00 67 1018.8
20260505161601 23 266 4.8 17.7 0.00 0.05 0.00 65 1018.8
20260505160602 23 236 4.8 17.7 0.00 0.05 0.00 64 1018.7
20260505153104 24 166 4.8 14.5 0.00 0.05 0.00 61 1018.9
20260505152557 24 159 3.2 14.5 0.00 0.05 0.00 63 1018.9
20260505152054 24 209 6.4 19.3 0.00 0.05 0.00 65 1018.8
20260505151557 24 149 1.6 19.3 0.00 0.05 0.00 62 1018.8
20260505150555 24 101 1.6 19.3 0.00 0.05 0.00 67 1018.8
20260505140554 23 252 6.4 16.1 0.00 0.05 0.00 63 1018.7
20260505125038 21 246 1.6 8.0 0.00 0.05 0.00 75 1018.6
20260505124537 21 269 1.6 8.0 0.00 0.05 0.00 76 1018.7
20260505124036 20 294 1.6 8.0 0.00 0.05 0.00 78 1018.7
20260505123533 20 271 1.6 8.0 0.00 0.05 0.00 80 1018.6
20260505123047 20 254 1.6 4.8 0.00 0.05 0.00 84 1018.7
20260505122530 19 275 0.0 4.8 0.00 0.05 0.00 90 1018.7
20260505122029 18 288 0.0 1.6 0.00 0.05 0.00 96 1018.6
20260505121529 17 266 0.0 4.8 0.00 0.05 0.00 98 1018.6
20260505120526 16 291 0.0 1.6 0.00 0.05 0.00 99 1018.6
20260505120036 16 291 0.0 1.6 0.00 0.05 0.00 99 1018.6
20260505115524 15 291 0.0 1.6 0.00 0.05 0.00 99 1018.5
20260505115023 15 291 0.0 0.0 0.00 0.05 0.00 99 1018.5
20260505114523 14 291 0.0 0.0 0.00 0.05 0.00 99 1018.5